Wooster, OH

8:18 AM EST on December 08, 2019 (GMT -0500)
Wayne County

Weather History for KBJJ - October, 2019

Change the Weather History Date:

Tuesday, October 15, 2019

  Actual Average Record
Temperature  
Mean Temperature 50 °F -  
Max Temperature 69 °F 60 °F 80 °F (2017)
Min Temperature 33 °F 37 °F 26 °F (2006)
Degree Days  
Heating Degree Days 14    
Moisture  
Dew Point 37 °F    
Average Humidity 68    
Maximum Humidity 97    
Minimum Humidity 30    
Precipitation  
Precipitation 0.00 in - - ()
Sea Level Pressure  
Sea Level Pressure 30.02 in    
Wind  
Wind Speed 3 mph (SSE)    
Max Wind Speed 13 mph    
Max Gust Speed 20 mph    
Visibility 9 miles    
Events      
Averages and records for this station are not official NWS values.
T = Trace of Precipitation, MM = Missing Value Source: NWS Daily Summary

Daily Weather History Graph

Daily Weather History Graph

Search for Another Location

Airport or City:

Astronomy

Oct. 15, 2019 Rise Set
Actual Time 7:38 AM EDT 6:47 PM EDT
Civil Twilight 7:10 AM EDT 7:15 PM EDT
Nautical Twilight 6:39 AM EDT 7:46 PM EDT
Astronomical Twilight 6:07 AM EDT 8:18 PM EDT
Moon 8:06 PM EDT (10/15) 9:08 AM EDT (10/15)
Length of Visible Light 12h 04m
Length of Day
11h 08m
Full, 97% of the Moon is Illuminated
Oct 15
Full
Oct 21
Last Quarter
Oct 27
New
Nov 4
First Quarter
Nov 12
Full

Hourly Weather History & Observations

Time (EDT) Temp. Dew Point Humidity Pressure Visibility Wind Dir Wind Speed Gust Speed Precip Events Conditions
12:56 AM 35.1 °F 34.0 °F 96% 30.14 in 10.0 mi Calm Calm - N/A   Clear
1:56 AM 34.0 °F 33.1 °F 96% 30.15 in 10.0 mi Calm Calm - N/A   Clear
2:56 AM 33.1 °F 32.0 °F 96% 30.16 in 8.0 mi Calm Calm - N/A   Clear
3:56 AM 33.1 °F 30.9 °F 92% 30.15 in 10.0 mi Calm Calm - N/A   Clear
4:56 AM 33.1 °F 30.9 °F 92% 30.15 in 7.0 mi Calm Calm - N/A   Clear
5:56 AM 33.1 °F 32.0 °F 96% 30.15 in 7.0 mi Calm Calm - N/A   Clear
6:56 AM 33.1 °F 30.9 °F 92% 30.17 in 8.0 mi Calm Calm - N/A   Clear
7:56 AM 33.1 °F 32.0 °F 96% 30.17 in 7.0 mi Calm Calm - N/A   Clear
8:56 AM 37.9 °F 37.0 °F 97% 30.17 in 8.0 mi Calm Calm - N/A   Clear
9:56 AM 46.0 °F 42.1 °F 86% 30.14 in 10.0 mi Calm Calm - N/A   Clear
10:56 AM 55.0 °F 43.0 °F 64% 30.12 in 10.0 mi SE 5.8 mph - N/A   Clear
11:56 AM 60.1 °F 39.0 °F 46% 30.09 in 10.0 mi South 11.5 mph - N/A   Clear
12:56 PM 62.1 °F 39.9 °F 44% 30.06 in 10.0 mi South 9.2 mph 17.3 mph N/A   Clear
1:56 PM 64.9 °F 39.0 °F 39% 30.01 in 10.0 mi South 9.2 mph - N/A   Clear
2:56 PM 66.9 °F 37.0 °F 33% 29.96 in 10.0 mi SSW 10.4 mph - N/A   Clear
3:56 PM 68.0 °F 36.0 °F 31% 29.91 in 10.0 mi SSE 12.7 mph 19.6 mph N/A   Clear
4:56 PM 68.0 °F 35.1 °F 30% 29.89 in 10.0 mi South 9.2 mph 19.6 mph N/A   Clear
5:56 PM 64.9 °F 34.0 °F 32% 29.89 in 10.0 mi South 8.1 mph - N/A   Clear
6:56 PM 59.0 °F 37.9 °F 46% 29.89 in 10.0 mi South 4.6 mph - N/A   Clear
7:56 PM 51.1 °F 41.0 °F 68% 29.88 in 10.0 mi SE 4.6 mph - 0.00 in   Clear
8:56 PM 50.0 °F 41.0 °F 71% 29.86 in 10.0 mi SE 4.6 mph - N/A   Clear
9:56 PM 52.0 °F 44.1 °F 74% 29.84 in 10.0 mi SE 3.5 mph - N/A   Overcast
10:56 PM 57.9 °F 39.9 °F 51% 29.81 in 10.0 mi South 6.9 mph - N/A   Overcast
11:56 PM 55.9 °F 41.0 °F 57% 29.78 in 10.0 mi SSE 4.6 mph - N/A   Clear